Year,Month,Day,Hour,Minute,Value (Times are PST for temperature in C)
2021,05,20,00,00,8.60
2021,05,20,00,01,8.60
2021,05,20,00,02,8.60
2021,05,20,00,03,8.60
2021,05,20,00,04,8.60
2021,05,20,00,05,8.60
2021,05,20,00,06,8.60
2021,05,20,00,07,8.70
2021,05,20,00,08,8.70
2021,05,20,00,09,8.70
2021,05,20,00,10,8.70
2021,05,20,00,11,8.70
2021,05,20,00,12,8.60
2021,05,20,00,13,8.60
2021,05,20,00,14,8.60
2021,05,20,00,15,8.60
2021,05,20,00,16,8.50
2021,05,20,00,17,8.50
2021,05,20,00,18,8.50
2021,05,20,00,19,8.40
2021,05,20,00,20,8.40
2021,05,20,00,21,8.40
2021,05,20,00,22,8.40
2021,05,20,00,23,8.30
2021,05,20,00,24,8.30
2021,05,20,00,25,8.30
2021,05,20,00,26,8.20
2021,05,20,00,27,8.20
2021,05,20,00,28,8.20
2021,05,20,00,29,8.10
2021,05,20,00,30,8.10
2021,05,20,00,31,8.10
2021,05,20,00,32,8.00
2021,05,20,00,33,8.00
2021,05,20,00,34,7.90
2021,05,20,00,35,7.90
2021,05,20,00,36,7.80
2021,05,20,00,37,7.80
2021,05,20,00,38,7.70
2021,05,20,00,39,7.70
2021,05,20,00,40,7.60
2021,05,20,00,41,7.60
2021,05,20,00,42,7.50
2021,05,20,00,43,7.50
2021,05,20,00,44,7.50
2021,05,20,00,45,7.40
2021,05,20,00,46,7.40
2021,05,20,00,47,7.40
2021,05,20,00,48,7.40
2021,05,20,00,49,7.50
2021,05,20,00,50,7.50
2021,05,20,00,51,7.40
2021,05,20,00,52,7.40
2021,05,20,00,53,7.40
2021,05,20,00,54,7.40
2021,05,20,00,55,7.40
2021,05,20,00,56,7.40
2021,05,20,00,57,7.40
2021,05,20,00,58,7.40
2021,05,20,00,59,7.40
2021,05,20,01,00,7.30
2021,05,20,01,01,7.30
2021,05,20,01,02,7.30
2021,05,20,01,03,7.20
2021,05,20,01,04,7.20
2021,05,20,01,05,7.20
2021,05,20,01,06,7.10
2021,05,20,01,07,7.10
2021,05,20,01,08,7.10
2021,05,20,01,09,7.00
2021,05,20,01,10,7.00
2021,05,20,01,11,7.00
2021,05,20,01,12,6.90
2021,05,20,01,13,6.90
2021,05,20,01,14,6.90
2021,05,20,01,15,6.90
2021,05,20,01,16,6.80
2021,05,20,01,17,6.80
2021,05,20,01,18,6.80
2021,05,20,01,19,6.80
2021,05,20,01,20,6.80
2021,05,20,01,21,6.80
2021,05,20,01,22,6.80
2021,05,20,01,23,6.80
2021,05,20,01,24,6.80
2021,05,20,01,25,6.80
2021,05,20,01,26,6.80
2021,05,20,01,27,6.80
2021,05,20,01,28,6.70
2021,05,20,01,29,6.70
2021,05,20,01,30,6.70
2021,05,20,01,31,6.60
2021,05,20,01,32,6.60
2021,05,20,01,33,6.60
2021,05,20,01,34,6.50
2021,05,20,01,35,6.50
2021,05,20,01,36,6.40
2021,05,20,01,37,6.40
2021,05,20,01,38,6.30
2021,05,20,01,39,6.30
2021,05,20,01,40,6.30
2021,05,20,01,41,6.30
2021,05,20,01,42,6.20
2021,05,20,01,43,6.20
2021,05,20,01,44,6.20
2021,05,20,01,45,6.20
2021,05,20,01,46,6.20
2021,05,20,01,47,6.20
2021,05,20,01,48,6.20
2021,05,20,01,49,6.20
2021,05,20,01,50,6.20
2021,05,20,01,51,6.20
2021,05,20,01,52,6.20
2021,05,20,01,53,6.20
2021,05,20,01,54,6.20
2021,05,20,01,55,6.30
2021,05,20,01,56,6.30
2021,05,20,01,57,6.30
2021,05,20,01,58,6.30
2021,05,20,01,59,6.20
2021,05,20,02,00,6.20
2021,05,20,02,01,6.20
2021,05,20,02,02,6.20
2021,05,20,02,03,6.20
2021,05,20,02,04,6.20
2021,05,20,02,05,6.10
2021,05,20,02,06,6.10
2021,05,20,02,07,6.10
2021,05,20,02,08,6.10
2021,05,20,02,09,6.10
2021,05,20,02,10,6.00
2021,05,20,02,11,6.00
2021,05,20,02,12,5.90
2021,05,20,02,13,5.90
2021,05,20,02,14,5.90
2021,05,20,02,15,5.90
2021,05,20,02,16,5.80
2021,05,20,02,17,5.80
2021,05,20,02,18,5.80
2021,05,20,02,19,5.80
2021,05,20,02,20,5.80
2021,05,20,02,21,5.80
2021,05,20,02,22,5.80
2021,05,20,02,23,5.80
2021,05,20,02,24,5.80
2021,05,20,02,25,5.80
2021,05,20,02,26,5.80
2021,05,20,02,27,5.80
2021,05,20,02,28,5.80
2021,05,20,02,29,5.80
2021,05,20,02,30,5.80
2021,05,20,02,31,5.80
2021,05,20,02,32,5.70
2021,05,20,02,33,5.80
2021,05,20,02,34,5.80
2021,05,20,02,35,5.70
2021,05,20,02,36,5.70
2021,05,20,02,37,5.70
2021,05,20,02,38,5.70
2021,05,20,02,39,5.70
2021,05,20,02,40,5.60
2021,05,20,02,41,5.60
2021,05,20,02,42,5.60
2021,05,20,02,43,5.60
2021,05,20,02,44,5.60
2021,05,20,02,45,5.60
2021,05,20,02,46,5.60
2021,05,20,02,47,5.60
2021,05,20,02,48,5.50
2021,05,20,02,49,5.50
2021,05,20,02,50,5.50
2021,05,20,02,51,5.50
2021,05,20,02,52,5.40
2021,05,20,02,53,5.40
2021,05,20,02,54,5.40
2021,05,20,02,55,5.40
2021,05,20,02,56,5.40
2021,05,20,02,57,5.30
2021,05,20,02,58,5.30
2021,05,20,02,59,5.30
2021,05,20,03,00,5.30
2021,05,20,03,01,5.30
2021,05,20,03,02,5.30
2021,05,20,03,03,5.20
2021,05,20,03,04,5.20
2021,05,20,03,05,5.20
2021,05,20,03,06,5.20
2021,05,20,03,07,5.20
2021,05,20,03,08,5.20
2021,05,20,03,09,5.20
2021,05,20,03,10,5.20
2021,05,20,03,11,5.20
2021,05,20,03,12,5.20
2021,05,20,03,13,5.20
2021,05,20,03,14,5.20
2021,05,20,03,15,5.20
2021,05,20,03,16,5.20
2021,05,20,03,17,5.20
2021,05,20,03,18,5.10
2021,05,20,03,19,5.10
2021,05,20,03,20,5.10
2021,05,20,03,21,5.10
2021,05,20,03,22,5.10
2021,05,20,03,23,5.10
2021,05,20,03,24,5.10
2021,05,20,03,25,5.10
2021,05,20,03,26,5.10
2021,05,20,03,27,5.10
2021,05,20,03,28,5.10
2021,05,20,03,29,5.10
2021,05,20,03,30,5.10
2021,05,20,03,31,5.00
2021,05,20,03,32,5.00
2021,05,20,03,33,5.00
2021,05,20,03,34,5.00
2021,05,20,03,35,5.00
2021,05,20,03,36,5.00
2021,05,20,03,37,5.00
2021,05,20,03,38,5.00
2021,05,20,03,39,5.00
2021,05,20,03,40,5.00
2021,05,20,03,41,5.00
2021,05,20,03,42,5.00
2021,05,20,03,43,5.00
2021,05,20,03,44,5.00
2021,05,20,03,45,4.90
2021,05,20,03,46,4.90
2021,05,20,03,47,4.90
2021,05,20,03,48,5.00
2021,05,20,03,49,5.00
2021,05,20,03,50,5.00
2021,05,20,03,51,5.00
2021,05,20,03,52,5.00
2021,05,20,03,53,5.00
2021,05,20,03,54,5.00
2021,05,20,03,55,4.90
2021,05,20,03,56,4.90
2021,05,20,03,57,4.90
2021,05,20,03,58,4.90
2021,05,20,03,59,4.90
2021,05,20,04,00,4.90
2021,05,20,04,01,4.90
2021,05,20,04,02,4.90
2021,05,20,04,03,4.90
2021,05,20,04,04,4.80
2021,05,20,04,05,4.80
2021,05,20,04,06,4.80
2021,05,20,04,07,4.80
2021,05,20,04,08,4.80
2021,05,20,04,09,4.80
2021,05,20,04,10,4.80
2021,05,20,04,11,4.80
2021,05,20,04,12,4.80
2021,05,20,04,13,4.80
2021,05,20,04,14,4.80
2021,05,20,04,15,4.80
2021,05,20,04,16,4.80
2021,05,20,04,17,4.70
2021,05,20,04,18,4.70
2021,05,20,04,19,4.70
2021,05,20,04,20,4.70
2021,05,20,04,21,4.70
2021,05,20,04,22,4.70
2021,05,20,04,23,4.70
2021,05,20,04,24,4.70
2021,05,20,04,25,4.70
2021,05,20,04,26,4.70
2021,05,20,04,27,4.70
2021,05,20,04,28,4.70
2021,05,20,04,29,4.70
2021,05,20,04,30,4.70
2021,05,20,04,31,4.70
2021,05,20,04,32,4.70
2021,05,20,04,33,4.70
2021,05,20,04,34,4.70
2021,05,20,04,35,4.70
2021,05,20,04,36,4.70
2021,05,20,04,37,4.70
2021,05,20,04,38,4.70
2021,05,20,04,39,4.70
2021,05,20,04,40,4.70
2021,05,20,04,41,4.70
2021,05,20,04,42,4.80
2021,05,20,04,43,4.80
2021,05,20,04,44,4.80
2021,05,20,04,45,4.80
2021,05,20,04,46,4.80
2021,05,20,04,47,4.80
2021,05,20,04,48,4.80
2021,05,20,04,49,4.80
2021,05,20,04,50,4.80
2021,05,20,04,51,4.80
2021,05,20,04,52,4.80
2021,05,20,04,53,4.80
2021,05,20,04,54,4.80
2021,05,20,04,55,4.80
2021,05,20,04,56,4.80
2021,05,20,04,57,4.80
2021,05,20,04,58,4.80
2021,05,20,04,59,4.80
2021,05,20,05,00,4.80
2021,05,20,05,01,4.80
2021,05,20,05,02,4.80
2021,05,20,05,03,4.80
2021,05,20,05,04,4.80
2021,05,20,05,05,4.80
2021,05,20,05,06,4.80
2021,05,20,05,07,4.80
2021,05,20,05,08,4.80
2021,05,20,05,09,4.80
2021,05,20,05,10,4.80
2021,05,20,05,11,4.80
2021,05,20,05,12,4.80
2021,05,20,05,13,4.80
2021,05,20,05,14,4.90
2021,05,20,05,15,4.90
2021,05,20,05,16,4.90
2021,05,20,05,17,4.80
2021,05,20,05,18,4.80
2021,05,20,05,19,4.80
2021,05,20,05,20,4.80
2021,05,20,05,21,4.80
2021,05,20,05,22,4.70
2021,05,20,05,23,4.70
2021,05,20,05,24,4.70
2021,05,20,05,25,4.70
2021,05,20,05,26,4.60
2021,05,20,05,27,4.60
2021,05,20,05,28,4.60
2021,05,20,05,29,4.60
2021,05,20,05,30,4.50
2021,05,20,05,31,4.50
2021,05,20,05,32,4.50
2021,05,20,05,33,4.40
2021,05,20,05,34,4.40
2021,05,20,05,35,4.40
2021,05,20,05,36,4.40
2021,05,20,05,37,4.40
2021,05,20,05,38,4.40
2021,05,20,05,39,4.40
2021,05,20,05,40,4.40
2021,05,20,05,41,4.40
2021,05,20,05,42,4.40
2021,05,20,05,43,4.40
2021,05,20,05,44,4.40
2021,05,20,05,45,4.40
2021,05,20,05,46,4.40
2021,05,20,05,47,4.40
2021,05,20,05,48,4.40
2021,05,20,05,49,4.40
2021,05,20,05,50,4.30
2021,05,20,05,51,4.30
2021,05,20,05,52,4.30
2021,05,20,05,53,4.30
2021,05,20,05,54,4.30
2021,05,20,05,55,4.30
2021,05,20,05,56,4.30
2021,05,20,05,57,4.30
2021,05,20,05,58,4.20
2021,05,20,05,59,4.20
2021,05,20,06,00,4.20
2021,05,20,06,01,4.20
2021,05,20,06,02,4.20
2021,05,20,06,03,4.20
2021,05,20,06,04,4.20
2021,05,20,06,05,4.30
2021,05,20,06,06,4.30
2021,05,20,06,07,4.40
2021,05,20,06,08,4.50
2021,05,20,06,09,4.60
2021,05,20,06,10,4.70
2021,05,20,06,11,4.80
2021,05,20,06,12,4.90
2021,05,20,06,13,5.00
2021,05,20,06,14,5.20
2021,05,20,06,15,5.30
2021,05,20,06,16,5.40
2021,05,20,06,17,5.50
2021,05,20,06,18,5.60
2021,05,20,06,19,5.70
2021,05,20,06,20,5.80
2021,05,20,06,21,5.80
2021,05,20,06,22,5.90
2021,05,20,06,23,6.00
2021,05,20,06,24,6.00
2021,05,20,06,25,6.10
2021,05,20,06,26,6.20
2021,05,20,06,27,6.20
2021,05,20,06,28,6.20
2021,05,20,06,29,6.20
2021,05,20,06,30,6.30
2021,05,20,06,31,6.30
2021,05,20,06,32,6.30
2021,05,20,06,33,6.40
2021,05,20,06,34,6.40
2021,05,20,06,35,6.50
2021,05,20,06,36,6.50
2021,05,20,06,37,6.60
2021,05,20,06,38,6.70
2021,05,20,06,39,6.70
2021,05,20,06,40,6.80
2021,05,20,06,41,6.80
2021,05,20,06,42,6.80
2021,05,20,06,43,6.80
2021,05,20,06,44,6.90
2021,05,20,06,45,6.90
2021,05,20,06,46,6.90
2021,05,20,06,47,6.90
2021,05,20,06,48,7.00
2021,05,20,06,49,7.00
2021,05,20,06,50,7.10
2021,05,20,06,51,7.10
2021,05,20,06,52,7.20
2021,05,20,06,53,7.20
2021,05,20,06,54,7.30
2021,05,20,06,55,7.30
2021,05,20,06,56,7.40
2021,05,20,06,57,7.50
2021,05,20,06,58,7.60
2021,05,20,06,59,7.70
2021,05,20,07,00,7.80
2021,05,20,07,01,7.90
2021,05,20,07,02,8.10
2021,05,20,07,03,8.20
2021,05,20,07,04,8.30
2021,05,20,07,05,8.40
2021,05,20,07,06,8.50
2021,05,20,07,07,8.50
2021,05,20,07,08,8.60
2021,05,20,07,09,8.70
2021,05,20,07,10,8.70
2021,05,20,07,11,8.70
2021,05,20,07,12,8.80
2021,05,20,07,13,8.80
2021,05,20,07,14,8.90
2021,05,20,07,15,8.90
2021,05,20,07,16,9.00
2021,05,20,07,17,9.10
2021,05,20,07,18,9.10
2021,05,20,07,19,9.20
2021,05,20,07,20,9.30
2021,05,20,07,21,9.30
2021,05,20,07,22,9.30
2021,05,20,07,23,9.40
2021,05,20,07,24,9.40
2021,05,20,07,25,9.50
2021,05,20,07,26,9.50
2021,05,20,07,27,9.60
2021,05,20,07,28,9.60
2021,05,20,07,29,9.70
2021,05,20,07,30,9.70
2021,05,20,07,31,9.70
2021,05,20,07,32,9.70
2021,05,20,07,33,9.80
2021,05,20,07,34,9.80
2021,05,20,07,35,9.80
2021,05,20,07,36,9.90
2021,05,20,07,37,9.90
2021,05,20,07,38,9.90
2021,05,20,07,39,10.00
2021,05,20,07,40,10.10
2021,05,20,07,41,10.10
2021,05,20,07,42,10.10
2021,05,20,07,43,10.20
2021,05,20,07,44,10.20
2021,05,20,07,45,10.30
2021,05,20,07,46,10.30
2021,05,20,07,47,10.30
2021,05,20,07,48,10.40
2021,05,20,07,49,10.40
2021,05,20,07,50,10.50
2021,05,20,07,51,10.50
2021,05,20,07,52,10.60
2021,05,20,07,53,10.60
2021,05,20,07,54,10.70
2021,05,20,07,55,10.70
2021,05,20,07,56,10.80
2021,05,20,07,57,10.90
2021,05,20,07,58,10.90
2021,05,20,07,59,10.90
2021,05,20,08,00,11.00
2021,05,20,08,01,11.00
2021,05,20,08,02,11.00
2021,05,20,08,03,11.00
2021,05,20,08,04,11.00
2021,05,20,08,05,11.00
2021,05,20,08,06,11.10
2021,05,20,08,07,11.10
2021,05,20,08,08,11.20
2021,05,20,08,09,11.20
2021,05,20,08,10,11.20
2021,05,20,08,11,11.20
2021,05,20,08,12,11.20
2021,05,20,08,13,11.30
2021,05,20,08,14,11.30
2021,05,20,08,15,11.30
2021,05,20,08,16,11.30
2021,05,20,08,17,11.30
2021,05,20,08,18,11.30
2021,05,20,08,19,11.30
2021,05,20,08,20,11.40
2021,05,20,08,21,11.40
2021,05,20,08,22,11.40
2021,05,20,08,23,11.50
2021,05,20,08,24,11.60
2021,05,20,08,25,11.60
2021,05,20,08,26,11.60
2021,05,20,08,27,11.60
2021,05,20,08,28,11.70
2021,05,20,08,29,11.70
2021,05,20,08,30,11.80
2021,05,20,08,31,11.80
2021,05,20,08,32,11.90
2021,05,20,08,33,12.00
2021,05,20,08,34,12.00
2021,05,20,08,35,12.10
2021,05,20,08,36,12.10
2021,05,20,08,37,12.00
2021,05,20,08,38,11.90
2021,05,20,08,39,11.90
2021,05,20,08,40,11.90
2021,05,20,08,41,11.90
2021,05,20,08,42,11.90
2021,05,20,08,43,12.00
2021,05,20,08,44,11.90
2021,05,20,08,45,11.90
2021,05,20,08,46,11.90
2021,05,20,08,47,12.00
2021,05,20,08,48,12.00
2021,05,20,08,49,12.00
2021,05,20,08,50,12.00
2021,05,20,08,51,11.90
2021,05,20,08,52,11.80
2021,05,20,08,53,11.80
2021,05,20,08,54,11.80
2021,05,20,08,55,11.80
2021,05,20,08,56,11.80
2021,05,20,08,57,11.90
2021,05,20,08,58,11.90
2021,05,20,08,59,11.90
2021,05,20,09,00,12.00
2021,05,20,09,01,12.10
2021,05,20,09,02,12.10
2021,05,20,09,03,12.20
2021,05,20,09,04,12.20
2021,05,20,09,05,12.30
2021,05,20,09,06,12.40
2021,05,20,09,07,12.50
2021,05,20,09,08,12.60
2021,05,20,09,09,12.70
2021,05,20,09,10,12.80
2021,05,20,09,11,12.80
2021,05,20,09,12,12.90
2021,05,20,09,13,13.00
2021,05,20,09,14,13.10
2021,05,20,09,15,13.10
2021,05,20,09,16,13.20
2021,05,20,09,17,13.20
2021,05,20,09,18,13.20
2021,05,20,09,19,13.20
2021,05,20,09,20,13.30
2021,05,20,09,21,13.30
2021,05,20,09,22,13.30
2021,05,20,09,23,13.30
2021,05,20,09,24,13.30
2021,05,20,09,25,13.20
2021,05,20,09,26,13.20
2021,05,20,09,27,13.30
2021,05,20,09,28,13.30
2021,05,20,09,29,13.40
2021,05,20,09,30,13.40
2021,05,20,09,31,13.40
2021,05,20,09,32,13.40
2021,05,20,09,33,13.40
2021,05,20,09,34,13.40
2021,05,20,09,35,13.40
2021,05,20,09,36,13.40
2021,05,20,09,37,13.40
2021,05,20,09,38,13.30
2021,05,20,09,39,13.30
2021,05,20,09,40,13.30
2021,05,20,09,41,13.30
2021,05,20,09,42,13.30
2021,05,20,09,43,13.20
2021,05,20,09,44,13.30
2021,05,20,09,45,13.30
2021,05,20,09,46,13.30
2021,05,20,09,47,13.30
2021,05,20,09,48,13.30
2021,05,20,09,49,13.30
2021,05,20,09,50,13.30
2021,05,20,09,51,13.30
2021,05,20,09,52,13.40
2021,05,20,09,53,13.50
2021,05,20,09,54,13.60
2021,05,20,09,55,13.70
2021,05,20,09,56,13.60
2021,05,20,09,57,13.60
2021,05,20,09,58,13.70
2021,05,20,09,59,13.80
2021,05,20,10,00,13.80
2021,05,20,10,01,13.80
2021,05,20,10,02,13.80
2021,05,20,10,03,13.80
2021,05,20,10,04,13.80
2021,05,20,10,05,13.80
2021,05,20,10,06,13.70
2021,05,20,10,07,13.70
2021,05,20,10,08,13.80
2021,05,20,10,09,13.80
2021,05,20,10,10,13.90
2021,05,20,10,11,13.80
2021,05,20,10,12,13.80
2021,05,20,10,13,13.90
2021,05,20,10,14,13.90
2021,05,20,10,15,14.00
2021,05,20,10,16,14.00
2021,05,20,10,17,14.00
2021,05,20,10,18,14.00
2021,05,20,10,19,14.00
2021,05,20,10,20,14.10
2021,05,20,10,21,14.10
2021,05,20,10,22,14.20
2021,05,20,10,23,14.20
2021,05,20,10,24,14.20
2021,05,20,10,25,14.30
2021,05,20,10,26,14.40
2021,05,20,10,27,14.50
2021,05,20,10,28,14.60
2021,05,20,10,29,14.70
2021,05,20,10,30,14.80
2021,05,20,10,31,14.70
2021,05,20,10,32,14.70
2021,05,20,10,33,14.70
2021,05,20,10,34,14.70
2021,05,20,10,35,14.70
2021,05,20,10,36,14.70
2021,05,20,10,37,14.70
2021,05,20,10,38,14.70
2021,05,20,10,39,14.70
2021,05,20,10,40,14.80
2021,05,20,10,41,14.80
2021,05,20,10,42,14.80
2021,05,20,10,43,14.80
2021,05,20,10,44,14.80
2021,05,20,10,45,14.80
2021,05,20,10,46,14.80
2021,05,20,10,47,14.80
2021,05,20,10,48,14.80
2021,05,20,10,49,14.80
2021,05,20,10,50,14.80
2021,05,20,10,51,14.90
2021,05,20,10,52,14.90
2021,05,20,10,53,14.90
2021,05,20,10,54,14.90
2021,05,20,10,55,14.90
2021,05,20,10,56,14.80
2021,05,20,10,57,14.80
2021,05,20,10,58,14.80
2021,05,20,10,59,14.80
2021,05,20,11,00,14.80
2021,05,20,11,01,14.90
2021,05,20,11,02,15.00
2021,05,20,11,03,15.00
2021,05,20,11,04,15.00
2021,05,20,11,05,15.00
2021,05,20,11,06,14.90
2021,05,20,11,07,14.80
2021,05,20,11,08,14.70
2021,05,20,11,09,14.80
2021,05,20,11,10,14.80
2021,05,20,11,11,14.80
2021,05,20,11,12,14.90
2021,05,20,11,13,14.90
2021,05,20,11,14,14.90
2021,05,20,11,15,15.00
2021,05,20,11,16,15.00
2021,05,20,11,17,15.00
2021,05,20,11,18,14.90
2021,05,20,11,19,14.90
2021,05,20,11,20,15.00
2021,05,20,11,21,15.00
2021,05,20,11,22,15.00
2021,05,20,11,23,14.90
2021,05,20,11,24,14.90
2021,05,20,11,25,15.00
2021,05,20,11,26,15.00
2021,05,20,11,27,15.00
2021,05,20,11,28,15.10
2021,05,20,11,29,15.10
2021,05,20,11,30,15.10
2021,05,20,11,31,15.20
2021,05,20,11,32,15.20
2021,05,20,11,33,15.20
2021,05,20,11,34,15.30
2021,05,20,11,35,15.40
2021,05,20,11,36,15.50
2021,05,20,11,37,15.60
2021,05,20,11,38,15.50
2021,05,20,11,39,15.50
2021,05,20,11,40,15.50
2021,05,20,11,41,15.50
2021,05,20,11,42,15.50
2021,05,20,11,43,15.60
2021,05,20,11,44,15.70
2021,05,20,11,45,15.70
2021,05,20,11,46,15.70
2021,05,20,11,47,15.70
2021,05,20,11,48,15.80
2021,05,20,11,49,15.90
2021,05,20,11,50,15.90
2021,05,20,11,51,16.00
2021,05,20,11,52,16.00
2021,05,20,11,53,16.10
2021,05,20,11,54,16.20
2021,05,20,11,55,16.20
2021,05,20,11,56,16.20
2021,05,20,11,57,16.30
2021,05,20,11,58,16.30
2021,05,20,11,59,16.40
2021,05,20,12,00,16.50
2021,05,20,12,01,16.60
2021,05,20,12,02,16.60
2021,05,20,12,03,16.50
2021,05,20,12,04,16.40
2021,05,20,12,05,16.30
2021,05,20,12,06,16.20
2021,05,20,12,07,16.10
2021,05,20,12,08,16.10
2021,05,20,12,09,16.10
2021,05,20,12,10,16.10
2021,05,20,12,11,16.10
2021,05,20,12,12,16.10
2021,05,20,12,13,16.10
2021,05,20,12,14,16.20
2021,05,20,12,15,16.30
2021,05,20,12,16,16.30
2021,05,20,12,17,16.40
2021,05,20,12,18,16.50
2021,05,20,12,19,16.50
2021,05,20,12,20,16.60
2021,05,20,12,21,16.70
2021,05,20,12,22,16.80
2021,05,20,12,23,16.90
2021,05,20,12,24,16.90
2021,05,20,12,25,16.80
2021,05,20,12,26,16.70
2021,05,20,12,27,16.60
2021,05,20,12,28,16.60
2021,05,20,12,29,16.60
2021,05,20,12,30,16.60
2021,05,20,12,31,16.60
2021,05,20,12,32,16.60
2021,05,20,12,33,16.60
2021,05,20,12,34,16.60
2021,05,20,12,35,16.60
2021,05,20,12,36,16.60
2021,05,20,12,37,16.70
2021,05,20,12,38,16.70
2021,05,20,12,39,16.70
2021,05,20,12,40,16.80
2021,05,20,12,41,16.80
2021,05,20,12,42,16.80
2021,05,20,12,43,16.80
2021,05,20,12,44,16.70
2021,05,20,12,45,16.60
2021,05,20,12,46,16.50
2021,05,20,12,47,16.40
2021,05,20,12,48,16.40
2021,05,20,12,49,16.40
2021,05,20,12,50,16.40
2021,05,20,12,51,16.40
2021,05,20,12,52,16.40
2021,05,20,12,53,16.40
2021,05,20,12,54,16.40
2021,05,20,12,55,16.50
2021,05,20,12,56,16.50
2021,05,20,12,57,16.60
2021,05,20,12,58,16.60
2021,05,20,12,59,16.60
2021,05,20,13,00,16.50
2021,05,20,13,01,16.40
2021,05,20,13,02,16.30
2021,05,20,13,03,16.20
2021,05,20,13,04,16.20
2021,05,20,13,05,16.10
2021,05,20,13,06,16.10
2021,05,20,13,07,16.10
2021,05,20,13,08,16.10
2021,05,20,13,09,16.10
2021,05,20,13,10,16.20
2021,05,20,13,11,16.20
2021,05,20,13,12,16.20
2021,05,20,13,13,16.10
2021,05,20,13,14,16.10
2021,05,20,13,15,16.10
2021,05,20,13,16,16.10
2021,05,20,13,17,16.10
2021,05,20,13,18,16.00
2021,05,20,13,19,15.90
2021,05,20,13,20,15.90
2021,05,20,13,21,15.90
2021,05,20,13,22,15.90
2021,05,20,13,23,16.00
2021,05,20,13,24,16.00
2021,05,20,13,25,16.00
2021,05,20,13,26,16.00
2021,05,20,13,27,16.10
2021,05,20,13,28,16.20
2021,05,20,13,29,16.30
2021,05,20,13,30,16.30
2021,05,20,13,31,16.40
2021,05,20,13,32,16.60
2021,05,20,13,33,16.70
2021,05,20,13,34,16.80
2021,05,20,13,35,16.90
2021,05,20,13,36,17.00
2021,05,20,13,37,17.00
2021,05,20,13,38,17.10
2021,05,20,13,39,17.20
2021,05,20,13,40,17.20
2021,05,20,13,41,17.20
2021,05,20,13,42,17.20
2021,05,20,13,43,17.10
2021,05,20,13,44,17.00
2021,05,20,13,45,16.90
2021,05,20,13,46,16.70
2021,05,20,13,47,16.60
2021,05,20,13,48,16.50
2021,05,20,13,49,16.50
2021,05,20,13,50,16.50
2021,05,20,13,51,16.50
2021,05,20,13,52,16.40
2021,05,20,13,53,16.40
2021,05,20,13,54,16.40
2021,05,20,13,55,16.40
2021,05,20,13,56,16.40
2021,05,20,13,57,16.40
2021,05,20,13,58,16.40
2021,05,20,13,59,16.30
2021,05,20,14,00,16.30
2021,05,20,14,01,16.40
2021,05,20,14,02,16.40
2021,05,20,14,03,16.50
2021,05,20,14,04,16.50
2021,05,20,14,05,16.50
2021,05,20,14,06,16.60
2021,05,20,14,07,16.60
2021,05,20,14,08,16.60
2021,05,20,14,09,16.70
2021,05,20,14,10,16.60
2021,05,20,14,11,16.60
2021,05,20,14,12,16.60
2021,05,20,14,13,16.60
2021,05,20,14,14,16.70
2021,05,20,14,15,16.80
2021,05,20,14,16,16.90
2021,05,20,14,17,17.00
2021,05,20,14,18,17.00
2021,05,20,14,19,17.10
2021,05,20,14,20,17.10
2021,05,20,14,21,17.20
2021,05,20,14,22,17.20
2021,05,20,14,23,17.20
2021,05,20,14,24,17.10
2021,05,20,14,25,17.00
2021,05,20,14,26,17.00
2021,05,20,14,27,17.00
2021,05,20,14,28,17.00
2021,05,20,14,29,16.90
2021,05,20,14,30,17.00
2021,05,20,14,31,17.00
2021,05,20,14,32,17.00
2021,05,20,14,33,17.00
2021,05,20,14,34,17.10
2021,05,20,14,35,17.30
2021,05,20,14,36,17.40
2021,05,20,14,37,17.60
2021,05,20,14,38,17.60
2021,05,20,14,39,17.70
2021,05,20,14,40,17.80
2021,05,20,14,41,17.90
2021,05,20,14,42,17.90
2021,05,20,14,43,17.80
2021,05,20,14,44,17.80
2021,05,20,14,45,17.80
2021,05,20,14,46,17.90
2021,05,20,14,47,18.00
2021,05,20,14,48,18.00
2021,05,20,14,49,18.10
2021,05,20,14,50,18.10
2021,05,20,14,51,18.10
2021,05,20,14,52,18.00
2021,05,20,14,53,17.90
2021,05,20,14,54,17.80
2021,05,20,14,55,17.70
2021,05,20,14,56,17.60
2021,05,20,14,57,17.50
2021,05,20,14,58,17.50
2021,05,20,14,59,17.40
2021,05,20,15,00,17.40
2021,05,20,15,01,17.40
2021,05,20,15,02,17.50
2021,05,20,15,03,17.50
2021,05,20,15,04,17.50
2021,05,20,15,05,17.60
2021,05,20,15,06,17.60
2021,05,20,15,07,17.60
2021,05,20,15,08,17.60
2021,05,20,15,09,17.60
2021,05,20,15,10,17.60
2021,05,20,15,11,17.60
2021,05,20,15,12,17.60
2021,05,20,15,13,17.60
2021,05,20,15,14,17.70
2021,05,20,15,15,17.90
2021,05,20,15,16,18.00
2021,05,20,15,17,18.10
2021,05,20,15,18,18.30
2021,05,20,15,19,18.50
2021,05,20,15,20,18.70
2021,05,20,15,21,18.80
2021,05,20,15,22,18.90
2021,05,20,15,23,19.00
2021,05,20,15,24,19.10
2021,05,20,15,25,19.20
2021,05,20,15,26,19.20
2021,05,20,15,27,19.20
2021,05,20,15,28,19.20
2021,05,20,15,29,19.20
2021,05,20,15,30,19.20
2021,05,20,15,31,19.30
2021,05,20,15,32,19.40
2021,05,20,15,33,19.50
2021,05,20,15,34,19.60
2021,05,20,15,35,19.70
2021,05,20,15,36,19.80
2021,05,20,15,37,19.90
2021,05,20,15,38,20.00
2021,05,20,15,39,20.10
2021,05,20,15,40,20.00
2021,05,20,15,41,20.00
2021,05,20,15,42,20.10
2021,05,20,15,43,20.10
2021,05,20,15,44,20.10
2021,05,20,15,45,20.20
2021,05,20,15,46,20.20
2021,05,20,15,47,20.30
2021,05,20,15,48,20.30
2021,05,20,15,49,20.40
2021,05,20,15,50,20.40
2021,05,20,15,51,20.40
2021,05,20,15,52,20.40
2021,05,20,15,53,20.40
2021,05,20,15,54,20.50
2021,05,20,15,55,20.60
2021,05,20,15,56,20.60
2021,05,20,15,57,20.60
2021,05,20,15,58,20.60
2021,05,20,15,59,20.60
2021,05,20,16,00,20.70
2021,05,20,16,01,20.70
2021,05,20,16,02,20.80
2021,05,20,16,03,20.80
2021,05,20,16,04,20.90
2021,05,20,16,05,21.00
2021,05,20,16,06,21.10
2021,05,20,16,07,21.20
2021,05,20,16,08,21.20
2021,05,20,16,09,21.20
2021,05,20,16,10,21.10
2021,05,20,16,11,21.00
2021,05,20,16,12,20.90
2021,05,20,16,13,20.60
2021,05,20,16,14,20.40
2021,05,20,16,15,20.00
2021,05,20,16,16,19.80
2021,05,20,16,17,19.50
2021,05,20,16,18,19.30
2021,05,20,16,19,19.20
2021,05,20,16,20,19.10
2021,05,20,16,21,19.00
2021,05,20,16,22,18.90
2021,05,20,16,23,18.80
2021,05,20,16,24,18.80
2021,05,20,16,25,18.80
2021,05,20,16,26,18.90
2021,05,20,16,27,18.90
2021,05,20,16,28,18.90
2021,05,20,16,29,19.00
2021,05,20,16,30,19.00
2021,05,20,16,31,19.10
2021,05,20,16,32,19.10
2021,05,20,16,33,19.10
2021,05,20,16,34,19.20
2021,05,20,16,35,19.20
2021,05,20,16,36,19.20
2021,05,20,16,37,19.30
2021,05,20,16,38,19.40
2021,05,20,16,39,19.40
2021,05,20,16,40,19.40
2021,05,20,16,41,19.30
2021,05,20,16,42,19.20
2021,05,20,16,43,19.20
2021,05,20,16,44,19.20
2021,05,20,16,45,19.20
2021,05,20,16,46,19.20
2021,05,20,16,47,19.20
2021,05,20,16,48,19.30
2021,05,20,16,49,19.30
2021,05,20,16,50,19.30
2021,05,20,16,51,19.30
2021,05,20,16,52,19.30
2021,05,20,16,53,19.40
2021,05,20,16,54,19.40
2021,05,20,16,55,19.40
2021,05,20,16,56,19.50
2021,05,20,16,57,19.50
2021,05,20,16,58,19.50
2021,05,20,16,59,19.50
2021,05,20,17,00,19.50
2021,05,20,17,01,19.50
2021,05,20,17,02,19.60
2021,05,20,17,03,19.70
2021,05,20,17,04,19.80
2021,05,20,17,05,19.80
2021,05,20,17,06,19.90
2021,05,20,17,07,20.00
2021,05,20,17,08,20.00
2021,05,20,17,09,20.10
2021,05,20,17,10,20.10
2021,05,20,17,11,20.00
2021,05,20,17,12,19.90
2021,05,20,17,13,19.90
2021,05,20,17,14,19.90
2021,05,20,17,15,19.90
2021,05,20,17,16,19.90
2021,05,20,17,17,20.00
2021,05,20,17,18,20.00
2021,05,20,17,19,20.10
2021,05,20,17,20,20.10
2021,05,20,17,21,20.00
2021,05,20,17,22,20.00
2021,05,20,17,23,20.00
2021,05,20,17,24,19.90
2021,05,20,17,25,19.90
2021,05,20,17,26,19.90
2021,05,20,17,27,19.90
2021,05,20,17,28,19.90
2021,05,20,17,29,20.00
2021,05,20,17,30,20.10
2021,05,20,17,31,20.10
2021,05,20,17,32,20.10
2021,05,20,17,33,20.20
2021,05,20,17,34,20.10
2021,05,20,17,35,20.10
2021,05,20,17,36,20.10
2021,05,20,17,37,20.20
2021,05,20,17,38,20.20
2021,05,20,17,39,20.20